When you browse on this site, cookies collect data to enhance your experience and personalize the content and advertising you see.
Visit our Privacy Policy to learn more. By continuing to use the site, you agree to this use of cookies and data.
  • en Suisse
  • Liste des pays
  • À 7 jours
  • Température de l'eau
  • Carte météo
  • Widgets météo
  • user-avatar
    Se connecter

    Météo par heure à Zelenaya Roscha

    Ce jour, 2 Juin, Mardi

    Heure Température Précipitation Vent Pression Humidité
    00:00 +10°C° 0.7 mm 7 m/s 736 mmHg 95%
    01:00 +10°C° 0.2 mm 6 m/s 736 mmHg 96%
    02:00 +10°C° 0.2 mm 6 m/s 736 mmHg 96%
    03:00 +11°C° 0 mm 4 m/s 736 mmHg 96%
    04:00 +10°C° 0 mm 5 m/s 736 mmHg 96%
    05:00 +10°C° 0 mm 5 m/s 736 mmHg 96%
    06:00 +10°C° 0 mm 5 m/s 736 mmHg 96%
    07:00 +12°C° 0.1 mm 5 m/s 736 mmHg 95%
    08:00 +13°C° 0.1 mm 5 m/s 736 mmHg 93%
    09:00 +13°C° 0 mm 5 m/s 736 mmHg 93%
    10:00 +14°C° 0.7 mm 5 m/s 736 mmHg 88%
    11:00 +17°C° 0.7 mm 4 m/s 736 mmHg 84%
    12:00 +18°C° 0.7 mm 4 m/s 736 mmHg 80%
    13:00 +18°C° 1.5 mm 4 m/s 736 mmHg 78%
    14:00 +19°C° 1.5 mm 4 m/s 736 mmHg 77%
    15:00 +19°C° 1.5 mm 4 m/s 736 mmHg 75%
    16:00 +19°C° 0.6 mm 4 m/s 736 mmHg 77%
    17:00 +19°C° 0.6 mm 4 m/s 736 mmHg 80%
    18:00 +18°C° 0.6 mm 4 m/s 735 mmHg 82%
    19:00 +17°C° 0.6 mm 3 m/s 736 mmHg 85%
    20:00 +16°C° 0.6 mm 3 m/s 736 mmHg 88%
    21:00 +14°C° 0.6 mm 3 m/s 736 mmHg 91%
    22:00 +13°C° 0.4 mm 3 m/s 736 mmHg 92%
    23:00 +14°C° 0.4 mm 2 m/s 736 mmHg 93%

    Demain, 3 Juin, Mercredi

    Heure Température Précipitation Vent Pression Humidité
    00:00 +14°C° 0.4 mm 2 m/s 735 mmHg 94%
    01:00 +14°C° 1.2 mm 2 m/s 735 mmHg 95%
    02:00 +14°C° 1.2 mm 2 m/s 736 mmHg 96%
    03:00 +14°C° 1.2 mm 2 m/s 736 mmHg 98%
    04:00 +14°C° 0.1 mm 2 m/s 735 mmHg 97%
    05:00 +14°C° 0.1 mm 2 m/s 735 mmHg 97%
    06:00 +14°C° 0.1 mm 2 m/s 735 mmHg 97%
    07:00 +13°C° 0.3 mm 3 m/s 735 mmHg 97%
    08:00 +14°C° 0.3 mm 3 m/s 735 mmHg 96%
    09:00 +14°C° 0.3 mm 3 m/s 735 mmHg 96%
    10:00 +16°C° 0.4 mm 3 m/s 735 mmHg 94%
    11:00 +16°C° 0.4 mm 3 m/s 735 mmHg 92%
    12:00 +17°C° 0.4 mm 3 m/s 735 mmHg 90%
    13:00 +16°C° 2.1 mm 3 m/s 735 mmHg 92%
    14:00 +16°C° 2.1 mm 3 m/s 734 mmHg 94%
    15:00 +15°C° 2.1 mm 2 m/s 734 mmHg 95%
    16:00 +14°C° 4.7 mm 3 m/s 733 mmHg 96%
    17:00 +14°C° 4.7 mm 3 m/s 732 mmHg 97%
    18:00 +13°C° 4.7 mm 3 m/s 732 mmHg 97%
    19:00 +13°C° 2.7 mm 4 m/s 732 mmHg 97%
    20:00 +13°C° 2.7 mm 4 m/s 732 mmHg 96%
    21:00 +13°C° 2.7 mm 4 m/s 732 mmHg 96%
    22:00 +12°C° 0 mm 4 m/s 732 mmHg 96%
    23:00 +11°C° 0 mm 4 m/s 733 mmHg 96%

    Après-demain, 4 Juin, Jeudi

    Heure Température Précipitation Vent Pression Humidité
    00:00 +11°C° 0 mm 4 m/s 733 mmHg 96%
    01:00 +10°C° 0 mm 4 m/s 733 mmHg 95%
    02:00 +10°C° 0 mm 3 m/s 734 mmHg 95%
    03:00 +9°C° 0 mm 3 m/s 735 mmHg 95%
    04:00 +10°C° 0 mm 3 m/s 735 mmHg 93%
    05:00 +10°C° 0 mm 3 m/s 735 mmHg 92%
    06:00 +12°C° 0 mm 2 m/s 735 mmHg 91%
    07:00 +13°C° 0 mm 2 m/s 735 mmHg 86%
    08:00 +15°C° 0 mm 2 m/s 736 mmHg 81%
    09:00 +16°C° 0 mm 2 m/s 736 mmHg 76%
    10:00 +17°C° 0 mm 2 m/s 736 mmHg 72%
    11:00 +18°C° 0 mm 2 m/s 736 mmHg 67%
    12:00 +19°C° 0 mm 2 m/s 736 mmHg 63%
    13:00 +19°C° 0.6 mm 3 m/s 736 mmHg 67%
    14:00 +19°C° 0.6 mm 3 m/s 736 mmHg 70%
    15:00 +19°C° 0.6 mm 4 m/s 736 mmHg 73%
    16:00 +19°C° 0.4 mm 4 m/s 736 mmHg 76%
    17:00 +18°C° 0.4 mm 4 m/s 736 mmHg 78%
    18:00 +18°C° 0.4 mm 4 m/s 736 mmHg 81%
    19:00 +17°C° 0 mm 3 m/s 736 mmHg 84%
    20:00 +16°C° 0 mm 3 m/s 736 mmHg 88%
    21:00 +14°C° 0 mm 2 m/s 736 mmHg 91%
    22:00 +14°C° 0 mm 2 m/s 737 mmHg 92%
    23:00 +13°C° 0 mm 2 m/s 737 mmHg 93%

    5 Juin, Vendredi

    Heure Température Précipitation Vent Pression Humidité
    00:00 +13°C° 0 mm 2 m/s 737 mmHg 93%
    01:00 +13°C° 0 mm 2 m/s 737 mmHg 94%
    02:00 +12°C° 0 mm 2 m/s 737 mmHg 94%
    03:00 +12°C° 0 mm 2 m/s 737 mmHg 94%
    04:00 +13°C° 0 mm 2 m/s 737 mmHg 93%
    05:00 +13°C° 0 mm 2 m/s 737 mmHg 92%
    06:00 +14°C° 0 mm 2 m/s 737 mmHg 92%
    07:00 +15°C° 0 mm 2 m/s 738 mmHg 88%
    08:00 +16°C° 0 mm 3 m/s 738 mmHg 84%
    09:00 +17°C° 0 mm 3 m/s 738 mmHg 81%
    10:00 +18°C° 0.7 mm 3 m/s 738 mmHg 77%
    11:00 +18°C° 0.7 mm 3 m/s 738 mmHg 74%
    12:00 +19°C° 0.7 mm 4 m/s 738 mmHg 71%
    13:00 +19°C° 0.5 mm 3 m/s 738 mmHg 70%
    14:00 +20°C° 0.5 mm 3 m/s 738 mmHg 69%
    15:00 +20°C° 0.5 mm 3 m/s 738 mmHg 69%
    16:00 +20°C° 0.7 mm 3 m/s 738 mmHg 72%
    17:00 +20°C° 0.7 mm 2 m/s 738 mmHg 75%
    18:00 +20°C° 0.7 mm 2 m/s 738 mmHg 78%
    19:00 +18°C° 0.2 mm 2 m/s 738 mmHg 82%
    20:00 +17°C° 0.2 mm 2 m/s 738 mmHg 86%
    21:00 +15°C° 0.2 mm 2 m/s 738 mmHg 89%
    22:00 +15°C° 0 mm 2 m/s 738 mmHg 91%
    23:00 +14°C° 0 mm 2 m/s 739 mmHg 92%

    6 Juin, Samedi

    Heure Température Précipitation Vent Pression Humidité
    00:00 +13°C° 0 mm 3 m/s 739 mmHg 93%
    01:00 +12°C° 0 mm 3 m/s 739 mmHg 94%
    02:00 +12°C° 0 mm 3 m/s 739 mmHg 94%
    03:00 +12°C° 0 mm 3 m/s 739 mmHg 95%
    04:00 +12°C° 0 mm 3 m/s 739 mmHg 95%
    05:00 +13°C° 0 mm 3 m/s 739 mmHg 95%
    06:00 +13°C° 0 mm 3 m/s 739 mmHg 95%
    07:00 +14°C° 0 mm 4 m/s 740 mmHg 92%
    08:00 +15°C° 0 mm 4 m/s 740 mmHg 90%
    09:00 +18°C° 0 mm 4 m/s 740 mmHg 88%
    10:00 +18°C° 0 mm 4 m/s 740 mmHg 88%
    11:00 +17°C° 0 mm 5 m/s 740 mmHg 88%
    12:00 +17°C° 0 mm 5 m/s 740 mmHg 88%
    13:00 +20°C° 0 mm 5 m/s 740 mmHg 84%
    14:00 +22°C° 0 mm 5 m/s 740 mmHg 81%
    15:00 +23°C° 0 mm 5 m/s 740 mmHg 77%
    16:00 +23°C° 0.5 mm 5 m/s 740 mmHg 80%
    17:00 +23°C° 0.5 mm 4 m/s 740 mmHg 82%
    18:00 +23°C° 0.5 mm 4 m/s 740 mmHg 85%
    19:00 +21°C° 0.2 mm 3 m/s 740 mmHg 87%
    20:00 +20°C° 0.2 mm 3 m/s 741 mmHg 90%
    21:00 +19°C° 0.2 mm 3 m/s 741 mmHg 92%
    22:00 +19°C° 0 mm 3 m/s 741 mmHg 93%
    23:00 +18°C° 0 mm 3 m/s 741 mmHg 94%

    7 Juin, Dimanche

    Heure Température Précipitation Vent Pression Humidité
    00:00 +18°C° 0 mm 3 m/s 742 mmHg 95%
    01:00 +18°C° 0 mm 3 m/s 742 mmHg 95%
    02:00 +17°C° 0 mm 3 m/s 742 mmHg 95%
    03:00 +17°C° 0 mm 3 m/s 742 mmHg 95%
    04:00 +17°C° 0 mm 3 m/s 742 mmHg 95%
    05:00 +18°C° 0 mm 3 m/s 742 mmHg 94%
    06:00 +18°C° 0 mm 2 m/s 743 mmHg 93%
    07:00 +19°C° 0 mm 3 m/s 743 mmHg 90%
    08:00 +21°C° 0 mm 3 m/s 743 mmHg 86%
    09:00 +22°C° 0 mm 3 m/s 743 mmHg 82%
    10:00 +24°C° 0.1 mm 3 m/s 744 mmHg 77%
    11:00 +25°C° 0.1 mm 3 m/s 744 mmHg 71%
    12:00 +26°C° 0.1 mm 3 m/s 744 mmHg 66%
    13:00 +26°C° 0.4 mm 3 m/s 744 mmHg 67%
    14:00 +26°C° 0.4 mm 4 m/s 744 mmHg 68%
    15:00 +26°C° 0.4 mm 4 m/s 743 mmHg 68%
    16:00 +26°C° 0.4 mm 3 m/s 743 mmHg 72%
    17:00 +25°C° 0.4 mm 3 m/s 743 mmHg 75%
    18:00 +25°C° 0.4 mm 2 m/s 743 mmHg 79%
    19:00 +24°C° 0.8 mm 2 m/s 743 mmHg 82%
    20:00 +21°C° 0.8 mm 2 m/s 743 mmHg 84%
    21:00 +20°C° 0.8 mm 2 m/s 743 mmHg 87%
    22:00 +19°C° 0.2 mm 2 m/s 743 mmHg 88%
    23:00 +19°C° 0.2 mm 2 m/s 744 mmHg 89%
    Voir plus